Nelspruit, South Africa

11:28 AM SAST on September 16, 2014 (GMT +0200)
IMPUMALA11 | Change Station
CLOSE
Current Station
Personal Weather Station
Location: Nelspruit, MPUMALANGA
Elevation: 2552 ft
Nearby Weather Stations

Elev 2552 ft 25.49 °S, 30.99 °E | Updated 11 seconds ago

Clear
Clear
81.9 °F
Feels Like 80 °F
N
1.6
Wind Variable Wind from ESE
Gusts 4.3 mph

Today
High -- | Low -- °F
--% Chance of Precip.
Yesterday
High -- | Low -- °F
Precip. -- in
5:52 AM 5:50 PM
Waning Gibbous, 47% visible
Pressure 30.24 in
Visibility -9999.0 miles
Clouds
Heat Index 80 °F
Dew Point 47 °F
Humidity 30%
Rainfall 0.00 in
Snow Depth Not available.
UV Not available.
Pollen Not available.
Air Quality Not available.
Flu Activity Not available.
METAR FAKN 160900Z 04007KT CAVOK 28/05 Q1024 NOSIG

More Conditions Fewer Conditions

Pressure 30.24 in
Visibility -9999.0 miles
Clouds
Heat Index 80 °F
Dew Point 47 °F
Humidity 30%
Rainfall 0.00 in
Snow Depth Not available.
UV Not available.
Pollen Not available.
Air Quality Not available.
Flu Activity Not available.
METAR FAKN 160900Z 04007KT CAVOK 28/05 Q1024 NOSIG

More Conditions Fewer Conditions

10-Day Weather Forecast

Almanac

Astronomy

Sep. 16, 2014 Rise Set
Actual Time 5:52 AM SAST 5:50 PM SAST
Civil Twilight 5:29 AM SAST 6:12 PM SAST
Nautical Twilight 5:03 AM SAST 6:39 PM SAST
Astronomical Twilight 4:36 AM SAST 7:06 PM SAST
Moon 12:17 AM SAST 11:24 AM SAST
Length of Visible Light 12h 43m
Length of Day
11h 57m
Tomorrow will be 1m 28s longer.
Waning Gibbous, 47% of the Moon is Illuminated
Today
Waning Gibbous
Sep 24
New
Oct 1
First Quarter
Oct 8
Full
Oct 15
Last Quarter

Yesterday's Extremes

Country Highs Country Lows

Community

WunderPhotos

Upload Photos

1,753,714 photos uploaded!

WunderBlogs® & News

Nearby

Snow Depth

Not available.

Earthquake Activity

City Distance Mag. Time & Date
No recent earthquake activity has been reported nearby.
Minimum magnitude displayed is 2.5.

Coastal Water Temperatures

Place Temperature
No Stations Reporting

Nearby Weather Stations